DH3PAE-6 Weather Reports


time (UTC)temp
C
wind
direction
speed
KPH
gust
KPH
rain 1hr
cm
rain 24hr
cm
rain mn
cm
humidity
%
barometer
mb
20190823140345 27 67 6.4 9.7 0.00 0.00 0.00 37 1023.8
20190823135344 27 45 6.4 16.1 0.00 0.00 0.00 38 1023.8
20190823134344 27 337 3.2 11.3 0.00 0.00 0.00 37 1023.9
20190823132347 27 90 1.6 16.1 0.00 0.00 0.00 40 1024.1
20190823130345 27 135 1.6 9.7 0.00 0.00 0.00 40 1024.3
20190823125345 27 67 6.4 20.9 0.00 0.00 0.00 39 1024.4
20190823124346 27 45 1.6 14.5 0.00 0.00 0.00 41 1024.5
20190823122347 26 67 6.4 16.1 0.00 0.00 0.00 42 1024.6
20190823121346 26 67 4.8 11.3 0.00 0.00 0.00 41 1024.7
20190823114345 26 315 1.6 9.7 0.00 0.00 0.00 44 1024.9
20190823113345 26 45 9.7 11.3 0.00 0.00 0.00 43 1025.1
20190823111344 26 67 0.0 11.3 0.00 0.00 0.00 45 1025.2
20190823105343 25 45 4.8 11.3 0.00 0.00 0.00 44 1025.5
20190823103344 25 67 6.4 19.3 0.00 0.00 0.00 47 1025.7
20190823102346 25 45 6.4 19.3 0.00 0.00 0.00 46 1025.8
20190823101344 24 67 3.2 20.9 0.00 0.00 0.00 48 1025.8
20190823094345 24 90 8.0 17.7 0.00 0.00 0.00 48 1026.0
20190823093344 23 90 11.3 17.7 0.00 0.00 0.00 47 1026.0
20190823092346 23 90 6.4 17.7 0.00 0.00 0.00 51 1026.0
20190823091344 23 90 1.6 11.3 0.00 0.00 0.00 51 1026.0
20190823085343 23 45 6.4 9.7 0.00 0.00 0.00 53 1026.1
20190823084345 23 0 0.0 0.0 0.00 0.00 0.00 55 1026.2
20190823083346 22 22 0.0 6.4 0.00 0.00 0.00 58 1026.2
20190823082347 21 0 0.0 1.6 0.00 0.00 0.00 64 1026.1
20190823075343 19 22 1.6 3.2 0.00 0.00 0.00 73 1026.3
20190823074345 18 0 0.0 0.0 0.00 0.00 0.00 78 1026.3
20190823073346 17 0 0.0 0.0 0.00 0.00 0.00 85 1026.2
20190823072348 16 0 0.0 0.0 0.00 0.00 0.00 89 1026.3
20190823071346 15 0 0.0 0.0 0.00 0.00 0.00 92 1026.3
20190823070425 13 0 0.0 0.0 0.00 0.00 0.00 94 1026.3
20190823070350 13 0 0.0 0.0 0.00 0.00 0.00 94 1026.3
20190823065418 13 0 0.0 0.0 0.00 0.00 0.00 94 1026.3
20190823065347 13 0 0.0 0.0 0.00 0.00 0.00 94 1026.3
20190823061345 10 0 0.0 0.0 0.00 0.00 0.00 94 1026.2
20190823060346 9 0 0.0 0.0 0.00 0.00 0.00 93 1026.2
20190823055345 9 0 0.0 0.0 0.00 0.00 0.00 93 1026.2
20190823053346 8 0 0.0 0.0 0.00 0.00 0.00 91 1026.2
20190823052348 7 0 0.0 0.0 0.00 0.00 0.00 91 1026.2
20190823051344 7 0 0.0 0.0 0.00 0.00 0.00 90 1026.2
20190823043344 8 0 0.0 0.0 0.00 0.00 0.00 90 1026.0
20190823041344 8 0 0.0 0.0 0.00 0.00 0.00 90 1026.0
20190823040348 8 0 0.0 0.0 0.00 0.00 0.00 89 1026.0
20190823033344 8 0 0.0 0.0 0.00 0.00 0.00 89 1026.0
20190823031346 8 0 0.0 0.0 0.00 0.00 0.00 89 1026.0
20190823030345 8 0 0.0 0.0 0.00 0.00 0.00 89 1025.9
20190823025346 8 0 0.0 0.0 0.00 0.00 0.00 88 1025.9
20190823024347 9 0 0.0 0.0 0.00 0.00 0.00 88 1026.0
20190823023344 9 0 0.0 0.0 0.00 0.00 0.00 88 1026.0
20190823021345 9 0 0.0 0.0 0.00 0.00 0.00 87 1026.0
20190823015343 10 0 0.0 0.0 0.00 0.00 0.00 86 1026.0
20190823014345 10 0 0.0 0.0 0.00 0.00 0.00 87 1025.9
20190823013345 10 0 0.0 0.0 0.00 0.00 0.00 86 1026.0
20190823012348 10 0 0.0 0.0 0.00 0.00 0.00 86 1026.0
20190823011346 10 0 0.0 0.0 0.00 0.00 0.00 86 1026.0
20190823004347 10 0 0.0 0.0 0.00 0.00 0.00 85 1026.0
20190823003344 11 0 0.0 0.0 0.00 0.00 0.00 85 1026.0
20190823001345 11 0 0.0 0.0 0.00 0.00 0.00 85 1026.0
20190823000346 11 0 0.0 0.0 0.00 0.00 0.00 84 1026.0
20190822235345 11 0 0.0 0.0 0.00 0.00 0.00 83 1026.2
20190822234346 11 0 0.0 0.0 0.00 0.00 0.00 83 1026.2
20190822233344 11 0 0.0 0.0 0.00 0.00 0.00 82 1026.3
20190822232346 12 0 0.0 0.0 0.00 0.00 0.00 82 1026.2
20190822231343 12 0 0.0 0.0 0.00 0.00 0.00 82 1026.3
20190822230347 12 0 0.0 0.0 0.00 0.00 0.00 81 1026.3
20190822225343 12 0 0.0 0.0 0.00 0.00 0.00 81 1026.3
20190822223343 12 0 0.0 0.0 0.00 0.00 0.00 80 1026.3
20190822221345 13 0 0.0 0.0 0.00 0.00 0.00 78 1026.2
20190822220347 13 0 0.0 0.0 0.00 0.00 0.00 78 1026.2
20190822214346 13 0 0.0 0.0 0.00 0.00 0.00 77 1026.1
20190822212345 14 0 0.0 0.0 0.00 0.00 0.00 76 1025.9
20190822211346 14 0 0.0 0.0 0.00 0.00 0.00 76 1026.0
20190822210346 15 0 0.0 0.0 0.00 0.00 0.00 74 1025.9
20190822205344 15 0 0.0 0.0 0.00 0.00 0.00 72 1025.9
20190822204345 15 0 0.0 0.0 0.00 0.00 0.00 72 1025.9
20190822203344 15 0 0.0 0.0 0.00 0.00 0.00 71 1025.8
20190822202346 16 0 0.0 0.0 0.00 0.00 0.00 70 1025.9
20190822195344 17 0 0.0 0.0 0.00 0.00 0.00 66 1025.8
20190822193344 18 0 0.0 0.0 0.00 0.00 0.00 63 1025.7
20190822192346 19 0 0.0 0.0 0.00 0.00 0.00 62 1025.6
20190822191345 20 0 0.0 0.0 0.00 0.00 0.00 60 1025.4
20190822190345 20 0 0.0 0.0 0.00 0.00 0.00 58 1025.3
20190822185346 21 0 0.0 0.0 0.00 0.00 0.00 56 1025.1
20190822184345 21 0 0.0 0.0 0.00 0.00 0.00 55 1025.0
20190822183343 22 0 0.0 0.0 0.00 0.00 0.00 54 1024.9
20190822182347 22 0 0.0 0.0 0.00 0.00 0.00 52 1024.9
20190822181346 23 0 0.0 0.0 0.00 0.00 0.00 51 1024.8
20190822180345 23 0 0.0 0.0 0.00 0.00 0.00 48 1024.7
20190822175342 23 0 0.0 4.8 0.00 0.00 0.00 47 1024.7
20190822174344 23 22 0.0 1.6 0.00 0.00 0.00 47 1024.7
20190822173343 24 0 0.0 0.0 0.00 0.00 0.00 48 1024.6
20190822172345 24 22 0.0 1.6 0.00 0.00 0.00 48 1024.6
20190822171344 24 0 0.0 3.2 0.00 0.00 0.00 47 1024.6
20190822165343 24 0 0.0 0.0 0.00 0.00 0.00 46 1024.5
20190822164346 24 0 0.0 6.4 0.00 0.00 0.00 45 1024.4
20190822163343 25 22 1.6 8.0 0.00 0.00 0.00 45 1024.5
20190822162347 25 360 1.6 8.0 0.00 0.00 0.00 46 1024.5
20190822161345 25 22 0.0 6.4 0.00 0.00 0.00 46 1024.6
20190822160342 25 45 0.0 8.0 0.00 0.00 0.00 45 1024.6
20190822155343 25 0 0.0 4.8 0.00 0.00 0.00 45 1024.6
20190822154345 25 22 0.0 8.0 0.00 0.00 0.00 46 1024.7
20190822153345 25 22 0.0 8.0 0.00 0.00 0.00 45 1024.7
20190822151343 25 45 3.2 8.0 0.00 0.00 0.00 45 1024.7
20190822150345 26 45 9.7 16.1 0.00 0.00 0.00 42 1024.7
20190822144345 26 292 1.6 4.8 0.00 0.00 0.00 43 1024.7
20190822143344 26 270 1.6 6.4 0.00 0.00 0.00 41 1024.8
20190822142343 26 0 0.0 1.6 0.00 0.00 0.00 41 1024.8